Location: Sobotiste
(48.7170°N, 17.4000°E)
Time: 08:27:48
(UTC+02:00)

AO-73 - Pass Details

Date: 19 March 2026
Orbit: 514 x 567 km, 97.8° (Epoch: 14 April)

Event Time Altitude Azimuth Distance (km) Brightness Sun altitude
Rises 03:03:06 0° 22° (NNE) 2,660 ? -27.7°
Reaches altitude 10° 03:05:25 10° 34° (NNE) 1,760 ? -27.4°
Maximum altitude 03:08:47 30° 96° (E) 952 ? -26.9°
Enters shadow 03:09:01 30° 104° (ESE) 957 ? -26.9°
